Printer-friendly version
Follow the MPC on Twitter Follow the MPC on Facebook The MPC blog
Minor Planet Center

MPEC 2009-Q64 : 2009 QH34

The following Minor Planet Electronic Circular may be linked-to from your own Web pages, but must not otherwise be redistributed electronically.

A form allowing access to any MPEC is at the bottom of this page.


Read MPEC 2009-Q63 Read MPEC 2009-Q65


M.P.E.C. 2009-Q64                                Issued 2009 Aug. 28, 21:27 UT

     The Minor Planet Electronic Circulars contain information on unusual
         minor planets and routine data on comets.  They are published
   on behalf of Commission 20 of the International Astronomical Union by the
          Minor Planet Center, Smithsonian Astrophysical Observatory,
                          Cambridge, MA 02138, U.S.A.

             Prepared using the Tamkin Foundation Computer Network

                              MPC@CFA.HARVARD.EDU
          URL http://www.cfa.harvard.edu/iau/mpc.html  ISSN 1523-6714

                                   2009 QH34

Observations:
     K09Q34H* C2009 08 28.13757 20 32 41.20 +04 02 17.3          17.2 V EQ064703
     K09Q34H  C2009 08 28.14249 20 32 52.51 +04 03 16.6          17.0 V EQ064703
     K09Q34H  C2009 08 28.14742 20 33 03.78 +04 04 15.5          17.0 V EQ064703
     K09Q34H  C2009 08 28.15214 20 33 14.68 +04 05 12.4          17.5 V EQ064703
     K09Q34H  C2009 08 28.21392 20 35 37.15 +04 17 42.5          17.3 R EQ064854
     K09Q34H  C2009 08 28.21530 20 35 40.41 +04 17 59.9          17.2 R EQ064854
     K09Q34H  C2009 08 28.21667 20 35 43.55 +04 18 16.2          17.2 R EQ064854
     K09Q34H  C2009 08 28.21921 20 35 49.41 +04 18 45.3          17.3 V EQ064703
     K09Q34H  C2009 08 28.22130 20 35 54.27 +04 19 11.9          17.4 V EQ064703
     K09Q34H  C2009 08 28.22368 20 35 59.89 +04 19 41.0          17.2 V EQ064703
     K09Q34H  C2009 08 28.22410 20 36 00.79 +04 19 46.1          17.3 V EQ064703
     K09Q34H  C2009 08 28.22480 20 36 02.45 +04 19 54.5          17.3 V EQ064703
     K09Q34H  C2009 08 28.22528 20 36 03.58 +04 20 00.6          17.4 V EQ064703
     K09Q34H  C2009 08 28.22578 20 36 04.52 +04 20 07.5                 EQ064703
     K09Q34H  C2009 08 28.22671 20 36 06.82 +04 20 18.2                 EQ064703
     K09Q34H  C2009 08 28.23360 20 36 15.83 +04 20 50.1          16.9 R EQ064H36
     K09Q34H  C2009 08 28.23489 20 36 18.85 +04 21 05.6          17.0 R EQ064H36
     K09Q34H  C2009 08 28.23616 20 36 21.88 +04 21 21.3          17.0 R EQ064H36
     K09Q34H  C2009 08 28.24021 20 36 31.47 +04 22 10.9          17.0 R EQ064H36
     K09Q34H  C2009 08 28.32626 20 40 05.66 +04 40 53.9          17.0 V EQ064703
     K09Q34H  C2009 08 28.32676 20 40 06.96 +04 41 00.2          17.0 V EQ064703
     K09Q34H  C2009 08 28.32726 20 40 08.14 +04 41 07.2          17.0 V EQ064703
     K09Q34H  C2009 08 28.80033 21 03 39.90 +06 27 45.4          17.1 V EQ064595
     K09Q34H  C2009 08 28.80216 21 03 45.52 +06 28 12.5          17.3 V EQ064595
     K09Q34H  C2009 08 28.80394 21 03 51.07 +06 28 39.4                 EQ064595
     K09Q34H  C2009 08 28.82367 21 04 53.84 +06 33 35.1                 EQ064204
     K09Q34H  C2009 08 28.82462 21 04 56.76 +06 33 49.4                 EQ064204
     K09Q34H  C2009 08 28.82556 21 04 59.70 +06 34 03.8                 EQ064204
     K09Q34H  C2009 08 28.82651 21 05 02.62 +06 34 18.0                 EQ064204
     K09Q34H  C2009 08 28.82745 21 05 05.55 +06 34 32.2          16.6 C EQ064204
     K09Q34H  C2009 08 28.84082121 05 49.47 +06 37 06.6                 EQ064J95
     K09Q34H  C2009 08 28.84212821 05 53.56 +06 37 26.5                 EQ064J95
     K09Q34H  C2009 08 28.84344721 05 57.71 +06 37 46.5          16.8 R EQ064J95
     K09Q34H  C2009 08 28.84823 21 06 09.32 +06 39 18.4          16.9 V EQ064A17
     K09Q34H  C2009 08 28.85011 21 06 15.16 +06 39 46.1          16.9 V EQ064A17
     K09Q34H  C2009 08 28.85158 21 06 19.80 +06 40 09.0          17.1 V EQ064A17
     K09Q34H  C2009 08 28.85334 21 06 25.28 +06 40 35.5          17.0 V EQ064A17
     K09Q34H  C2009 08 28.85478 21 06 29.77 +06 40 57.3          16.7 V EQ064A17
     K09Q34H  C2009 08 28.85677 21 06 36.02 +06 41 27.6          16.7 V EQ064A17

Observer details:
204 Schiaparelli Observatory.  Observer L. Buzzi.  0.60-m f/4.64 reflector
    + CCD.
595 Farra d'Isonzo.  Observer E. Pettarin.  0.40-m f/4.5 reflector + CCD.
703 Catalina Sky Survey.  Observer R. E. Hill.  Measurers E. C. Beshore,
    A. Boattini, G. J. Garradd, A. R. Gibbs, A. D. Grauer, R. E. Hill,
    R. A. Kowalski, S. M. Larson, R. H. McNaught.  0.68-m Schmidt + CCD.
854 Sabino Canyon Observatory, Tucson.  Observer J. E. McGaha.  0.36-m f/10.0
    Schmidt-Cassegrain + CCD.
A17 Guidestar Observatory, Weinheim.  Observers M. Emmerich, S. Melchert.
    0.36-m f/6 Schmidt-Cassegrain + CCD.
H36 Sandlot Observatory, Scranton.  Observer G. Hug.  0.56-m reflector + CCD.
J95 Great Shefford.  Observer P. Birtwhistle.  0.40-m f/6.0 Schmidt-Cassegrain
    + CCD.

Orbital elements:
2009 QH34                                                Earth MOID = 0.0052 AU
Epoch 2009 June 18.0 TT = JDT 2455000.5                 MPC
M 336.21904              (2000.0)            P               Q
n   0.28339263     Peri.  188.65957     +0.98419250     +0.17627959
a   2.2954985      Node   161.16138     -0.15916218     +0.92260560
e   0.5594855      Incl.    3.02640     -0.07766935     +0.34310990
P   3.48           H   24.9           G   0.15           U   7
Residuals in seconds of arc
090828 703  1.1-  0.2-    090828 703 (3.6-  0.8+)   090828 204  0.2-  0.0
090828 703  0.1-  0.2+    090828 703  1.8-  0.1+    090828 204  0.2+  0.2+
090828 703  0.1-  0.1-    090828 H36  0.9+  0.1+    090828 204  0.1-  0.0
090828 703  1.3+  0.1+    090828 H36  0.4+  0.2-    090828 204  0.1+  0.0
090828 854  0.1+  0.0     090828 H36  0.8+  0.0     090828 J95  0.1+  0.0
090828 854  0.8+  0.6+    090828 H36  0.5+  0.0     090828 J95  0.1-  0.1+
090828 854  0.1+  0.1+    090828 703  0.7-  0.3-    090828 J95  0.1-  0.0
090828 703  0.1-  0.9-    090828 703  0.3+  0.2-    090828 A17  0.3+  0.4+
090828 703  0.4-  0.1+    090828 703  0.5-  0.5+    090828 A17  0.3-  0.4-
090828 703  0.5+  0.1+    090828 595  0.0   0.0     090828 A17  0.3+  0.2+
090828 703  0.7-  0.0     090828 595  0.0   0.4-    090828 A17  0.1-  0.1-
090828 703  0.3-  0.1-    090828 595  1.1+  0.2-    090828 A17  0.4-  0.2-
090828 703  0.2-  0.1+    090828 204  0.1+  0.1+    090828 A17  0.1-  0.1-

Ephemeris:
2009 QH34                a,e,i = 2.30, 0.56, 3                   q = 1.0112
Date    TT    R. A. (2000) Decl.     Delta      r     Elong.  Phase     V
2009 08 27    19 55.34   +01 02.1    0.0206   1.027   141.7    37.6    18.0
2009 08 29    21 14.45   +07 25.2    0.0139   1.023   154.8    24.9    16.8
2009 08 31    23 55.88   +16 35.0    0.0113   1.019   148.1    31.6    16.5
2009 09 02    02 31.62   +17 59.6    0.0150   1.016   118.2    61.0    18.0
2009 09 04    03 46.35   +15 52.3    0.0220   1.014   103.5    75.3    19.3
2009 09 06    04 22.24   +14 14.0    0.0301   1.012    97.2    81.1    20.2
2009 09 08    04 42.37   +13 08.9    0.0385   1.011    94.4    83.4    20.8
2009 09 10    04 55.07   +12 24.2    0.0471   1.011    93.3    84.0    21.2
2009 09 12    05 03.75   +11 51.8    0.0557   1.011    93.2    83.7    21.6
2009 09 14    05 10.03   +11 27.3    0.0643   1.012    93.6    82.8    21.9
2009 09 16    05 14.73   +11 08.1    0.0729   1.014    94.4    81.5    22.1

Sonia Keys                   (C) Copyright 2009 MPC           M.P.E.C. 2009-Q64

Read MPEC 2009-Q63 Read MPEC 2009-Q65


MPEC number:

Enter an MPEC number in one of the following forms:

  • 1997-B01 (the full form)
  • J97B01 (the packed version of the full form)
  • B01 (the abbreviated form)

Valid HTML 4.01!